• In Österreich
  • Länderverzeichnis
  • Für 7 Tage
  • Wassertemperatur
  • Satellitenkarten
  • Wetterkarte
  • News
  • Widgets
  • user-avatar
    Anmelden

    Stündliche Wetter Kyrdshali

    Heute, 20 August, Montag

    Zeit Temperatur Niederschläge Wind Luftdruck Luftfeuchtigkeit
    00:00 +22°C° 0 mm 3 m/S 727 mmHg 58%
    01:00 +21°C° 0 mm 3 m/S 727 mmHg 61%
    02:00 +21°C° 0 mm 3 m/S 726 mmHg 67%
    03:00 +20°C° 0 mm 3 m/S 726 mmHg 69%
    04:00 +20°C° 0 mm 3 m/S 726 mmHg 71%
    05:00 +19°C° 0 mm 3 m/S 726 mmHg 72%
    06:00 +21°C° 0 mm 3 m/S 726 mmHg 67%
    07:00 +23°C° 0 mm 4 m/S 727 mmHg 61%
    08:00 +25°C° 0 mm 5 m/S 727 mmHg 53%
    09:00 +27°C° 0 mm 5 m/S 727 mmHg 47%
    10:00 +28°C° 0 mm 6 m/S 727 mmHg 41%
    11:00 +30°C° 0 mm 6 m/S 727 mmHg 35%
    12:00 +32°C° 0 mm 6 m/S 727 mmHg 32%
    13:00 +33°C° 0 mm 6 m/S 726 mmHg 29%
    14:00 +33°C° 0 mm 6 m/S 726 mmHg 28%
    15:00 +33°C° 0 mm 6 m/S 726 mmHg 28%
    16:00 +32°C° 0 mm 6 m/S 726 mmHg 27%
    17:00 +32°C° 0 mm 6 m/S 726 mmHg 27%
    18:00 +29°C° 0 mm 5 m/S 726 mmHg 31%
    19:00 +26°C° 0 mm 5 m/S 726 mmHg 35%
    20:00 +23°C° 0 mm 4 m/S 726 mmHg 39%
    21:00 +22°C° 0 mm 3 m/S 726 mmHg 44%
    22:00 +21°C° 0 mm 3 m/S 726 mmHg 48%
    23:00 +19°C° 0 mm 2 m/S 726 mmHg 52%

    Morgen, 21 August, Dienstag

    Zeit Temperatur Niederschläge Wind Luftdruck Luftfeuchtigkeit
    00:00 +19°C° 0 mm 2 m/S 726 mmHg 54%
    01:00 +19°C° 0 mm 2 m/S 726 mmHg 56%
    02:00 +18°C° 0 mm 3 m/S 726 mmHg 58%
    03:00 +18°C° 0 mm 3 m/S 726 mmHg 60%
    04:00 +18°C° 0 mm 3 m/S 726 mmHg 61%
    05:00 +17°C° 0 mm 3 m/S 726 mmHg 62%
    06:00 +19°C° 0 mm 3 m/S 726 mmHg 57%
    07:00 +21°C° 0 mm 4 m/S 727 mmHg 52%
    08:00 +23°C° 0 mm 4 m/S 727 mmHg 47%
    09:00 +26°C° 0 mm 5 m/S 727 mmHg 41%
    10:00 +28°C° 0 mm 5 m/S 727 mmHg 35%
    11:00 +29°C° 0 mm 6 m/S 727 mmHg 29%
    12:00 +30°C° 0 mm 6 m/S 727 mmHg 27%
    13:00 +32°C° 0 mm 5 m/S 727 mmHg 24%
    14:00 +33°C° 0 mm 5 m/S 727 mmHg 21%
    15:00 +33°C° 0 mm 5 m/S 727 mmHg 22%
    16:00 +33°C° 0 mm 5 m/S 726 mmHg 23%
    17:00 +32°C° 0 mm 5 m/S 726 mmHg 24%
    18:00 +29°C° 0 mm 4 m/S 726 mmHg 29%
    19:00 +27°C° 0 mm 4 m/S 726 mmHg 34%
    20:00 +24°C° 0 mm 3 m/S 726 mmHg 39%
    21:00 +22°C° 0 mm 3 m/S 727 mmHg 44%
    22:00 +21°C° 0 mm 2 m/S 727 mmHg 49%
    23:00 +20°C° 0 mm 2 m/S 727 mmHg 54%

    übermorgen, 22 August, Mittwoch

    Zeit Temperatur Niederschläge Wind Luftdruck Luftfeuchtigkeit
    00:00 +19°C° 0 mm 2 m/S 727 mmHg 56%
    01:00 +19°C° 0 mm 2 m/S 727 mmHg 57%
    02:00 +18°C° 0 mm 2 m/S 727 mmHg 59%
    03:00 +18°C° 0 mm 2 m/S 727 mmHg 60%
    04:00 +18°C° 0 mm 3 m/S 727 mmHg 61%
    05:00 +17°C° 0 mm 3 m/S 727 mmHg 62%
    06:00 +20°C° 0 mm 3 m/S 727 mmHg 55%
    07:00 +22°C° 0 mm 3 m/S 727 mmHg 49%
    08:00 +25°C° 0 mm 4 m/S 728 mmHg 43%
    09:00 +27°C° 0 mm 5 m/S 728 mmHg 38%
    10:00 +29°C° 0 mm 5 m/S 728 mmHg 32%
    11:00 +30°C° 0 mm 6 m/S 728 mmHg 27%
    12:00 +32°C° 0 mm 6 m/S 728 mmHg 25%
    13:00 +33°C° 0 mm 6 m/S 728 mmHg 23%
    14:00 +34°C° 0 mm 6 m/S 728 mmHg 21%
    15:00 +34°C° 0 mm 6 m/S 727 mmHg 22%
    16:00 +33°C° 0 mm 5 m/S 727 mmHg 22%
    17:00 +33°C° 0 mm 5 m/S 727 mmHg 22%
    18:00 +29°C° 0 mm 5 m/S 727 mmHg 26%
    19:00 +27°C° 0 mm 4 m/S 727 mmHg 29%
    20:00 +24°C° 0 mm 3 m/S 727 mmHg 33%
    21:00 +22°C° 0 mm 3 m/S 727 mmHg 36%
    22:00 +21°C° 0 mm 3 m/S 728 mmHg 40%
    23:00 +20°C° 0 mm 2 m/S 728 mmHg 43%

    23 August, Donnerstag

    Zeit Temperatur Niederschläge Wind Luftdruck Luftfeuchtigkeit
    00:00 +20°C° 0 mm 2 m/S 728 mmHg 44%
    01:00 +19°C° 0 mm 2 m/S 728 mmHg 44%
    02:00 +19°C° 0 mm 3 m/S 727 mmHg 45%
    03:00 +19°C° 0 mm 3 m/S 727 mmHg 45%
    04:00 +19°C° 0 mm 3 m/S 727 mmHg 45%
    05:00 +18°C° 0 mm 3 m/S 727 mmHg 45%
    06:00 +20°C° 0 mm 3 m/S 727 mmHg 43%
    07:00 +22°C° 0 mm 4 m/S 727 mmHg 41%
    08:00 +25°C° 0 mm 4 m/S 727 mmHg 38%
    09:00 +27°C° 0 mm 5 m/S 727 mmHg 38%
    10:00 +28°C° 0 mm 5 m/S 727 mmHg 37%
    11:00 +30°C° 0 mm 6 m/S 727 mmHg 37%
    12:00 +32°C° 0 mm 6 m/S 727 mmHg 35%
    13:00 +33°C° 0 mm 6 m/S 727 mmHg 33%
    14:00 +33°C° 0 mm 6 m/S 726 mmHg 31%
    15:00 +33°C° 0 mm 6 m/S 726 mmHg 33%
    16:00 +33°C° 0 mm 6 m/S 726 mmHg 35%
    17:00 +32°C° 0 mm 6 m/S 726 mmHg 36%
    18:00 +29°C° 0 mm 5 m/S 726 mmHg 43%
    19:00 +27°C° 0 mm 5 m/S 726 mmHg 49%
    20:00 +25°C° 0 mm 4 m/S 726 mmHg 56%
    21:00 +23°C° 0 mm 4 m/S 726 mmHg 64%
    22:00 +22°C° 0 mm 3 m/S 726 mmHg 71%
    23:00 +20°C° 0 mm 3 m/S 726 mmHg 79%

    24 August, Freitag

    Zeit Temperatur Niederschläge Wind Luftdruck Luftfeuchtigkeit
    00:00 +20°C° 0 mm 3 m/S 726 mmHg 81%
    01:00 +20°C° 0 mm 3 m/S 726 mmHg 84%
    02:00 +19°C° 0 mm 2 m/S 726 mmHg 86%
    03:00 +19°C° 0 mm 3 m/S 725 mmHg 86%
    04:00 +18°C° 0 mm 3 m/S 725 mmHg 86%
    05:00 +18°C° 0 mm 3 m/S 725 mmHg 86%
    06:00 +20°C° 0 mm 3 m/S 725 mmHg 78%
    07:00 +21°C° 0 mm 3 m/S 725 mmHg 69%
    08:00 +24°C° 0 mm 3 m/S 726 mmHg 60%
    09:00 +26°C° 0 mm 3 m/S 726 mmHg 53%
    10:00 +28°C° 0 mm 4 m/S 726 mmHg 45%
    11:00 +30°C° 0 mm 4 m/S 726 mmHg 38%
    12:00 +30°C° 0 mm 3 m/S 725 mmHg 35%
    13:00 +31°C° 0 mm 3 m/S 725 mmHg 32%
    14:00 +33°C° 0 mm 3 m/S 724 mmHg 30%
    15:00 +33°C° 0 mm 3 m/S 724 mmHg 30%
    16:00 +33°C° 0 mm 3 m/S 724 mmHg 31%
    17:00 +33°C° 0 mm 3 m/S 723 mmHg 31%
    18:00 +30°C° 0 mm 3 m/S 723 mmHg 37%
    19:00 +27°C° 0 mm 2 m/S 723 mmHg 44%
    20:00 +25°C° 0 mm 2 m/S 723 mmHg 50%
    21:00 +24°C° 0,1 mm 2 m/S 723 mmHg 55%
    22:00 +23°C° 0,1 mm 1 m/S 723 mmHg 61%
    23:00 +22°C° 0,1 mm 1 m/S 723 mmHg 67%

    25 August, Samstag

    Zeit Temperatur Niederschläge Wind Luftdruck Luftfeuchtigkeit
    00:00 +22°C° 0 mm 1 m/S 723 mmHg 69%
    01:00 +21°C° 0 mm 1 m/S 723 mmHg 72%
    02:00 +21°C° 0 mm 1 m/S 723 mmHg 75%
    03:00 +20°C° 0 mm 1 m/S 723 mmHg 75%
    04:00 +20°C° 0 mm 1 m/S 723 mmHg 76%
    05:00 +20°C° 0 mm 1 m/S 723 mmHg 76%
    06:00 +22°C° 0 mm 1 m/S 723 mmHg 70%
    07:00 +23°C° 0 mm 1 m/S 723 mmHg 63%
    08:00 +25°C° 0 mm 1 m/S 724 mmHg 56%
    09:00 +27°C° 0 mm 2 m/S 724 mmHg 49%
    10:00 +29°C° 0 mm 2 m/S 724 mmHg 42%
    11:00 +31°C° 0 mm 2 m/S 724 mmHg 35%
    12:00 +32°C° 0,1 mm 2 m/S 724 mmHg 34%
    13:00 +32°C° 0,1 mm 2 m/S 723 mmHg 32%
    14:00 +34°C° 0,1 mm 2 m/S 723 mmHg 31%
    15:00 +34°C° 0,1 mm 2 m/S 723 mmHg 31%
    16:00 +34°C° 0,1 mm 2 m/S 723 mmHg 31%
    17:00 +34°C° 0,1 mm 2 m/S 722 mmHg 31%
    18:00 +30°C° 0 mm 2 m/S 722 mmHg 35%
    19:00 +28°C° 0 mm 1 m/S 722 mmHg 40%
    20:00 +26°C° 0 mm 1 m/S 722 mmHg 45%
    21:00 +26°C° 0 mm 1 m/S 723 mmHg 46%
    22:00 +25°C° 0 mm 1 m/S 723 mmHg 48%
    23:00 +24°C° 0 mm 1 m/S 723 mmHg 50%
    Mehr zeigen